Regional Weather Roundup
Issued by NWS

Home | Current Version | Previous Version | Text Only | Print | Product List | Glossary On
Versions: 1 2 3 4 5 6 7 8 9 10 11 12 13 14 15 16 17 18 19 20 21 22 23 24 25 26 27 28 29 30 31 32 33 34 35 36 37 38 39 40 41 42 43 44 45 46 47 48 49 50
000
ASUS43 KMKX 300000
RWRWI

WISCONSIN REGIONAL WEATHER ROUNDUP
NATIONAL WEATHER SERVICE MILWAUKEE/SULLIVAN WI
700 PM CDT MON SEP 29 2014

NOTE: "FAIR" INDICATES FEW OR NO CLOUDS BELOW 12,000 FEET WITH NO
SIGNIFICANT WEATHER AND/OR OBSTRUCTIONS TO VISIBILITY.

WIZ001-002-006>008-014>016-023>028-300100-
NORTHWEST WISCONSIN

CITY           SKY/WX    TMP DP  RH WIND       PRES   REMARKS
SUPERIOR ARPT  CLOUDY    46  40  80 E10       30.21S
ASHLAND        CLOUDY    43  41  93 NE9       30.21S
6HR MIN TEMP:  43; 6HR MAX TEMP:  49; 6HR PCP:  0.01;

HAYWARD        CLOUDY    44  39  82 NE9       30.17S
6HR MIN TEMP:  44; 6HR MAX TEMP:  51;

SIREN          CLOUDY    48  40  75 NE7       30.15S
CUMBERLAND     CLEAR     46  39  76 NE12      30.13S
RICE LAKE      CLEAR     48  41  74 N12       30.14S
6HR MIN TEMP:  48; 6HR MAX TEMP:  56;

CHETEK         CLEAR     52  42  70 N10       30.12S
LADYSMITH      CLEAR     48  39  73 N10       30.15R
EAU CLAIRE     CLEAR     53  42  66 N7        30.09R
6HR MIN TEMP:  53; 6HR MAX TEMP:  61;

MENOMONIE      CLEAR     56  43  60 NE7       30.10R
NEW RICHMOND   CLEAR     53  42  65 NE7       30.12S
OSCEOLA        CLEAR     52  44  74 N7        30.15S
$$

WIZ003>005-009-010-017-018-300100-
NORTH CENTRAL WISCONSIN

CITY           SKY/WX    TMP DP  RH WIND       PRES   REMARKS
MANITOWISH WTR CLOUDY    38  38 100 N9        30.15S WCI  32
ARBOR VITAE    CLOUDY    42  39  91 N9        30.14F
WOODRUFF       CLOUDY    42  39  91 N9        30.14F
RHINELANDER    CLOUDY    40  36  86 N10G16    30.14R WCI  33
6HR MIN TEMP:  40; 6HR MAX TEMP:  50;

EAGLE RIVER    DRIZZLE   39  37  94 N10       30.14R WCI  32
LAND O LAKES   CLOUDY    39  38  96 N12       30.15S FOG     WCI  31
PHILLIPS       CLOUDY    42  37  84 NE13      30.14S
TOMAHAWK       CLOUDY    43  37  81 N7        30.13S
MEDFORD        CLEAR     47  40  77 NE9       30.10R
MERRILL        MOCLDY    46  40  78 N10       30.12R
$$

WIZ029-030-035-036-043>047-300100-
CENTRAL WISCONSIN

CITY           SKY/WX    TMP DP  RH WIND       PRES   REMARKS
WAUSAU         PTCLDY    49  41  74 NE7       30.09R
6HR MIN TEMP:  49; 6HR MAX TEMP:  54;

MOSINEE        CLOUDY    48  45  87 N10       30.10R
MARSHFIELD     CLEAR     52  43  71 NE9       30.08R
6HR MIN TEMP:  51; 6HR MAX TEMP:  58;

STEVENS POINT  PTCLDY    49  42  76 N7        30.09R
WAUPACA        CLOUDY    54  49  82 N5        30.08S
WAUTOMA        NOT AVBL
WISC RAPIDS    CLOUDY    54  44  69 N10       30.09S
6HR MIN TEMP:  53; 6HR MAX TEMP:  56; 6HR PCP:  0.01;

CAMP DOUGLAS   NOT AVBL
$$

WIZ011>013-019>022-031-037>040-048>050-300100-
NORTHEAST WISCONSIN

CITY           SKY/WX    TMP DP  RH WIND       PRES   REMARKS
ANTIGO         CLOUDY    45  40  83 N14       30.10R
SHAWANO        CLOUDY    51  43  74 N8        30.10R
6HR MIN TEMP:  51; 6HR MAX TEMP:  54; 6HR PCP:  0.04;

OCONTO         CLOUDY    49  43  79 N9        30.08R
STURGEON BAY   NOT AVBL
GREEN BAY      CLOUDY    50  47  89 N8        30.08R
6HR MIN TEMP:  49; 6HR MAX TEMP:  52; 6HR PCP:  0.12;

MANITOWOC      NOT AVBL
APPLETON       CLOUDY    52  46  82 N12       30.07S
CLINTONVILLE   CLOUDY    50  43  76 NE9       30.08R
OSHKOSH        CLOUDY    52  49  89 N15       30.06S
6HR MIN TEMP:  51; 6HR MAX TEMP:  62; 6HR PCP:  0.05;

$$

WIZ032>034-041-042-053>061-300100-
SOUTHWEST WISCONSIN

CITY           SKY/WX    TMP DP  RH WIND       PRES   REMARKS
LA CROSSE      CLOUDY    58  50  75 N10       30.06S
6HR MIN TEMP:  57; 6HR MAX TEMP:  65; 6HR PCP:  0.01;

SPARTA         CLOUDY    55  48  77 NE5       30.08R
VIROQUA        CLOUDY    54  50  89 NE9       30.06R
BOSCOBEL       CLOUDY    59  52  77 NE9G17    30.03R
6HR MIN TEMP:  59; 6HR MAX TEMP:  84; 6HR PCP: TRACE;

PRAIRIE DU CHI CLEAR     62  52  70 N9        30.01R
PLATTEVILLE    CLEAR     65  58  79 N16       30.00R
$$

WIZ056-057-062-063-064-067-068-300100-
SOUTH CENTRAL WISCONSIN

CITY           SKY/WX    TMP DP  RH WIND       PRES   REMARKS
REEDSBURG      CLOUDY    53  51  95 N12       30.05S
BARABOO/DELLS  CLOUDY    52  50  92 NE9       30.05S
LONE ROCK      CLOUDY    60  50  69 NE12      30.04R
6HR MIN TEMP:  60; 6HR MAX TEMP:  86;

MINERAL POINT  LGT RAIN  61  54  77 N14G20    30.00S
MADISON        CLOUDY    54  52  93 NE10      30.03R
6HR MIN TEMP:  54; 6HR MAX TEMP:  82; 6HR PCP:  0.05;

MIDDLETON      CLOUDY    55  54  94 N13       30.04R
WATERTOWN      LGT RAIN  52  52 100 N12       30.03R
MONROE         MOCLDY    63  59  88 N15G23    29.98R
JANESVILLE     MOCLDY    63  55  77 N10G16    29.99R
$$

WIZ051-052-058>065-066-070>072-300100-
SOUTHEAST WISCONSIN

CITY           SKY/WX    TMP DP  RH WIND       PRES   REMARKS
MILWAUKEE      LGT RAIN  52  47  83 N16G24    30.03R
6HR MIN TEMP:  52; 6HR MAX TEMP:  82; 6HR PCP: TRACE;

WAUKESHA       CLOUDY    52  48  87 NE12      30.04R
MILWAUKEE/TIMM NOT AVBL
RACINE         NOT AVBL
BURLINGTON     CLOUDY    54  50  87 NE10      30.01R
KENOSHA        CLOUDY    55  51  86 NE15G22   30.01R
6HR MIN TEMP:  55; 6HR MAX TEMP:  83;

FOND DU LAC    NOT AVBL
SHEBOYGAN      CLOUDY    50  47  89 N14       30.05
WEST BEND      LGT RAIN  50  46  87 N8        30.04S
JUNEAU         CLOUDY    50  49  97 N12G18    30.06R FOG
$$

LSZ147-162-300100-
LAKE SUPERIOR

STATION/POSITION TIME  TEMP    WIND        PRES    WAVE
                       AIR SEA DIR/SP/G            HT/PER
                 (UTC) (F)     (DEG/KT/KT) (MB)    (FT/S)
W MID LAKE BUOY  2250   45 49   50/ 16/ 17 1023.1F   5/ 8
DEVILS ISLAND    2300   45      70/ 12/ 14 1023.8F
SAXON HARBOR     2340   45      80/  8/ 12 1022.7F
$$

LMZ867-665-643>646-300100-
LAKE MICHIGAN

STATION/POSITION TIME  TEMP    WIND        PRES    WAVE
                       AIR SEA DIR/SP/G            HT/PER
                 (UTC) (F)     (DEG/KT/KT) (MB)    (FT/S)
CHAMBERS ISLAND  2300   50     350/ 21/ 24 1018.3S
S GREEN BAY BUOY 2300   53                 1019.0R
N MID LAKE BUOY  2250   49 59  340/ 23/ 29 1016.8R   5/ 5
NORTHPORT PIER   2301   49     350/ 25     1017.9R
KEWAUNEE LAKESHO 2300   50     360/  8/ 13 1016.9R
SHEBOYGAN LAKESH 2300   51 55   10/ 22/ 23 1017.7R
PORT WASHINGTON  2300           10/  6/ 23 1017.9
ATWATER BUOY     2300   54      10/ 21/ 27 1017.1R
MILWAUKEE LAKESH 2300           10/ 18/ 23   N/A
S MID LAKE BUOY  2250   57 64  350/ 23/ 27 1014.6R   3/ 4
KENOSHA   LAKESH 2300           20/ 26/ 30 1014.9R
$$

TC  - TEMPERATURE IN CELSIUS
VSB - VISIBILITY IN STATUTE MILES
WCI - WIND CHILL INDEX
HX  - HEAT INDEX



USA.gov is the U.S. government's official web portal to all federal, state and local government web resources and services.